Location: Central Falls
(41.8900°N, 71.3929°W)
Time: 21:19:32
(UTC+00:00)

Vanguard 3 - Pass Details

Date: 09 December 2023
Orbit: 508 x 3239 km, 33.4° (Epoch: 28 February)

Event Time Altitude Azimuth Distance (km) Brightness Sun altitude
Rises 22:13:06 0° 202° (SSW) 7,188 12.7 -10.7°
Reaches altitude 10° 22:19:39 10° 190° (S) 6,109 12.0 -11.8°
Maximum altitude 22:32:32 23° 147° (SSE) 4,549 10.8 -14.1°
Enters shadow 22:42:16 11° 104° (ESE) 4,748 10.5 -15.8°
Drops below altitude 10° 22:42:44 10° 102° (ESE) 4,798 - -15.9°
Sets 22:46:56 0° 89° (E) 5,387 - -16.6°
